TimeCDT,TemperatureF,Dew PointF,Humidity,Sea Level PressureIn,VisibilityMPH,Wind Direction,Wind SpeedMPH,Gust SpeedMPH,PrecipitationIn,Events,Conditions,WindDirDegrees,DateUTC
12:53 AM,73.9,71.1,91,30.07,10.0,SSE,6.9,-,N/A,,Clear,160,2012-10-11 05:53:00
1:53 AM,73.0,68.0,84,30.08,10.0,South,6.9,-,N/A,,Clear,170,2012-10-11 06:53:00
2:15 AM,73.4,66.2,78,30.10,10.0,South,5.8,-,N/A,,Mostly Cloudy,170,2012-10-11 07:15:00
2:23 AM,73.4,66.2,78,30.10,10.0,South,5.8,-,N/A,,Scattered Clouds,170,2012-10-11 07:23:00
2:53 AM,71.1,66.9,87,30.08,10.0,SSE,5.8,-,N/A,,Partly Cloudy,160,2012-10-11 07:53:00
3:16 AM,71.6,66.2,83,30.09,10.0,South,4.6,-,N/A,,Mostly Cloudy,170,2012-10-11 08:16:00
3:32 AM,71.6,66.2,83,30.09,10.0,SSE,3.5,-,N/A,,Scattered Clouds,160,2012-10-11 08:32:00
3:53 AM,70.0,66.0,87,30.07,10.0,SE,3.5,-,N/A,,Clear,130,2012-10-11 08:53:00
4:42 AM,69.8,66.2,88,30.08,10.0,SSE,3.5,-,N/A,,Mostly Cloudy,160,2012-10-11 09:42:00
4:53 AM,71.1,66.9,87,30.07,10.0,SSE,4.6,-,N/A,,Mostly Cloudy,160,2012-10-11 09:53:00
5:53 AM,72.0,69.1,91,30.08,10.0,SE,4.6,-,N/A,,Overcast,130,2012-10-11 10:53:00
6:26 AM,73.4,69.8,88,30.10,10.0,SSE,5.8,-,N/A,,Overcast,150,2012-10-11 11:26:00
6:53 AM,73.0,70.0,90,30.09,10.0,SE,5.8,-,N/A,,Overcast,140,2012-10-11 11:53:00
7:24 AM,71.6,69.8,94,30.11,10.0,SE,4.6,-,N/A,,Partly Cloudy,130,2012-10-11 12:24:00
7:53 AM,72.0,70.0,93,30.11,10.0,SE,3.5,-,N/A,,Clear,140,2012-10-11 12:53:00
8:53 AM,75.9,71.1,85,30.12,10.0,SE,10.4,-,N/A,,Partly Cloudy,140,2012-10-11 13:53:00
9:53 AM,80.1,72.0,76,30.14,10.0,SSE,15.0,21.9,N/A,,Partly Cloudy,160,2012-10-11 14:53:00
10:23 AM,80.6,71.6,74,30.15,10.0,South,13.8,-,N/A,,Mostly Cloudy,170,2012-10-11 15:23:00
10:53 AM,82.9,73.0,72,30.14,10.0,South,13.8,-,N/A,,Mostly Cloudy,170,2012-10-11 15:53:00
11:30 AM,84.2,71.6,66,30.15,10.0,South,13.8,18.4,N/A,,Mostly Cloudy,170,2012-10-11 16:30:00
11:37 AM,84.2,71.6,66,30.15,10.0,South,10.4,-,N/A,,Scattered Clouds,180,2012-10-11 16:37:00
11:53 AM,84.0,71.1,65,30.13,10.0,SSE,12.7,-,N/A,,Partly Cloudy,160,2012-10-11 16:53:00
12:53 PM,88.0,71.1,57,30.11,10.0,South,11.5,-,N/A,,Scattered Clouds,170,2012-10-11 17:53:00
1:53 PM,88.0,70.0,55,30.08,10.0,South,15.0,-,N/A,,Scattered Clouds,170,2012-10-11 18:53:00
2:53 PM,87.1,69.1,55,30.06,10.0,SSE,13.8,-,N/A,,Partly Cloudy,150,2012-10-11 19:53:00
3:53 PM,86.0,69.1,57,30.06,10.0,SE,11.5,-,N/A,,Partly Cloudy,140,2012-10-11 20:53:00
4:23 PM,80.6,73.4,79,30.09,2.5,SE,16.1,26.5,0.14,Rain-Thunderstorm,Rain,140,2012-10-11 21:23:00
4:37 PM,78.8,73.4,83,30.09,9.0,North,-9999.0,-,0.19,Rain-Thunderstorm,Light Thunderstorms and Rain,0,2012-10-11 21:37:00
4:53 PM,78.8,73.4,83,30.09,10.0,Calm,Calm,-,N/A,Rain-Thunderstorm,Light Thunderstorms and Rain,0,2012-10-11 21:53:00
5:35 PM,75.2,73.4,94,30.09,10.0,West,3.5,-,0.02,Rain,Light Rain,280,2012-10-11 22:35:00
5:42 PM,75.2,73.4,94,30.09,10.0,WSW,6.9,-,N/A,Thunderstorm,Mostly Cloudy,240,2012-10-11 22:42:00
5:53 PM,75.9,73.0,91,30.08,10.0,Calm,Calm,-,0.02,,Mostly Cloudy,0,2012-10-11 22:53:00
6:53 PM,77.0,73.9,90,30.07,10.0,SSW,5.8,-,0.00,,Mostly Cloudy,200,2012-10-11 23:53:00
7:53 PM,75.2,71.6,89,30.10,10.0,ESE,4.6,-,N/A,,Clear,120,2012-10-12 00:53:00
8:53 PM,73.9,70.0,87,30.11,10.0,SE,6.9,-,N/A,,Clear,130,2012-10-12 01:53:00
9:48 PM,73.4,71.6,94,30.14,10.0,ESE,5.8,-,N/A,,Mostly Cloudy,120,2012-10-12 02:48:00
9:53 PM,73.9,70.0,87,30.12,10.0,SE,5.8,-,N/A,,Mostly Cloudy,130,2012-10-12 02:53:00
10:01 PM,73.4,69.8,88,30.14,10.0,SE,6.9,-,N/A,,Scattered Clouds,130,2012-10-12 03:01:00
10:53 PM,73.9,69.1,85,30.13,10.0,SE,8.1,-,N/A,,Clear,140,2012-10-12 03:53:00
11:53 PM,73.0,69.1,87,30.12,10.0,SSE,5.8,-,N/A,,Partly Cloudy,150,2012-10-12 04:53:00